Year,Month,Day,Hour,Minute,Value (Times are PST for windgust in km/hr)
2009,08,20,00,00,0.00
2009,08,20,00,01,0.00
2009,08,20,00,02,0.00
2009,08,20,00,03,0.00
2009,08,20,00,04,0.00
2009,08,20,00,05,0.00
2009,08,20,00,06,0.00
2009,08,20,00,07,0.00
2009,08,20,00,08,0.00
2009,08,20,00,09,0.00
2009,08,20,00,10,0.00
2009,08,20,00,11,0.00
2009,08,20,00,12,0.00
2009,08,20,00,13,0.00
2009,08,20,00,14,0.00
2009,08,20,00,15,0.00
2009,08,20,00,16,0.00
2009,08,20,00,17,0.00
2009,08,20,00,18,0.00
2009,08,20,00,19,0.00
2009,08,20,00,20,0.00
2009,08,20,00,21,0.00
2009,08,20,00,22,0.00
2009,08,20,00,23,0.00
2009,08,20,00,24,0.00
2009,08,20,00,25,0.00
2009,08,20,00,26,0.00
2009,08,20,00,27,0.00
2009,08,20,00,28,0.00
2009,08,20,00,29,0.00
2009,08,20,00,30,0.00
2009,08,20,00,31,0.00
2009,08,20,00,32,0.00
2009,08,20,00,33,0.00
2009,08,20,00,34,0.00
2009,08,20,00,35,0.00
2009,08,20,00,36,0.00
2009,08,20,00,37,0.00
2009,08,20,00,38,0.00
2009,08,20,00,39,0.00
2009,08,20,00,40,0.00
2009,08,20,00,41,0.00
2009,08,20,00,42,0.00
2009,08,20,00,43,0.00
2009,08,20,00,44,0.00
2009,08,20,00,45,0.00
2009,08,20,00,46,0.00
2009,08,20,00,47,0.00
2009,08,20,00,48,0.00
2009,08,20,00,49,0.00
2009,08,20,00,50,0.00
2009,08,20,00,51,0.00
2009,08,20,00,52,0.00
2009,08,20,00,53,0.00
2009,08,20,00,54,0.00
2009,08,20,00,55,0.00
2009,08,20,00,56,0.00
2009,08,20,00,57,0.00
2009,08,20,00,58,0.00
2009,08,20,00,59,0.00
2009,08,20,01,00,0.00
2009,08,20,01,01,0.00
2009,08,20,01,02,0.00
2009,08,20,01,03,0.00
2009,08,20,01,04,0.00
2009,08,20,01,05,0.00
2009,08,20,01,06,0.00
2009,08,20,01,07,0.00
2009,08,20,01,08,0.00
2009,08,20,01,09,0.00
2009,08,20,01,10,0.00
2009,08,20,01,11,0.00
2009,08,20,01,12,0.00
2009,08,20,01,13,0.00
2009,08,20,01,14,0.00
2009,08,20,01,15,0.00
2009,08,20,01,16,0.00
2009,08,20,01,17,0.00
2009,08,20,01,18,0.00
2009,08,20,01,19,0.00
2009,08,20,01,20,0.00
2009,08,20,01,21,0.00
2009,08,20,01,22,0.00
2009,08,20,01,23,0.00
2009,08,20,01,24,0.00
2009,08,20,01,25,0.00
2009,08,20,01,26,0.00
2009,08,20,01,27,0.00
2009,08,20,01,28,0.00
2009,08,20,01,29,0.00
2009,08,20,01,30,0.00
2009,08,20,01,31,0.00
2009,08,20,01,32,0.00
2009,08,20,01,33,0.00
2009,08,20,01,34,0.00
2009,08,20,01,35,0.00
2009,08,20,01,36,0.00
2009,08,20,01,37,0.00
2009,08,20,01,38,0.00
2009,08,20,01,39,0.00
2009,08,20,01,40,0.00
2009,08,20,01,41,0.00
2009,08,20,01,42,0.00
2009,08,20,01,43,0.00
2009,08,20,01,44,0.00
2009,08,20,01,45,0.00
2009,08,20,01,46,0.00
2009,08,20,01,47,0.00
2009,08,20,01,48,0.00
2009,08,20,01,49,0.00
2009,08,20,01,50,6.40
2009,08,20,01,51,8.10
2009,08,20,01,52,8.10
2009,08,20,01,53,8.10
2009,08,20,01,54,6.40
2009,08,20,01,55,4.80
2009,08,20,01,56,3.20
2009,08,20,01,57,1.60
2009,08,20,01,58,0.00
2009,08,20,01,59,0.00
2009,08,20,02,00,0.00
2009,08,20,02,01,0.00
2009,08,20,02,02,1.60
2009,08,20,02,03,0.00
2009,08,20,02,04,0.00
2009,08,20,02,05,0.00
2009,08,20,02,06,0.00
2009,08,20,02,07,0.00
2009,08,20,02,08,0.00
2009,08,20,02,09,0.00
2009,08,20,02,10,0.00
2009,08,20,02,11,0.00
2009,08,20,02,12,0.00
2009,08,20,02,13,0.00
2009,08,20,02,14,1.60
2009,08,20,02,15,0.00
2009,08,20,02,16,4.80
2009,08,20,02,17,3.20
2009,08,20,02,18,1.60
2009,08,20,02,19,3.20
2009,08,20,02,20,3.20
2009,08,20,02,21,3.20
2009,08,20,02,22,3.20
2009,08,20,02,23,0.00
2009,08,20,02,24,0.00
2009,08,20,02,25,1.60
2009,08,20,02,26,0.00
2009,08,20,02,27,0.00
2009,08,20,02,28,0.00
2009,08,20,02,29,0.00
2009,08,20,02,30,0.00
2009,08,20,02,31,0.00
2009,08,20,02,32,3.20
2009,08,20,02,33,3.20
2009,08,20,02,34,0.00
2009,08,20,02,35,0.00
2009,08,20,02,36,0.00
2009,08,20,02,37,0.00
2009,08,20,02,38,0.00
2009,08,20,02,39,0.00
2009,08,20,02,40,0.00
2009,08,20,02,41,0.00
2009,08,20,02,42,0.00
2009,08,20,02,43,0.00
2009,08,20,02,44,0.00
2009,08,20,02,45,0.00
2009,08,20,02,46,0.00
2009,08,20,02,47,0.00
2009,08,20,02,48,0.00
2009,08,20,02,49,0.00
2009,08,20,02,50,0.00
2009,08,20,02,51,0.00
2009,08,20,02,52,0.00
2009,08,20,02,53,0.00
2009,08,20,02,54,0.00
2009,08,20,02,55,0.00
2009,08,20,02,56,0.00
2009,08,20,02,57,0.00
2009,08,20,02,58,0.00
2009,08,20,02,59,0.00
2009,08,20,03,00,0.00
2009,08,20,03,01,0.00
2009,08,20,03,02,0.00
2009,08,20,03,03,0.00
2009,08,20,03,04,0.00
2009,08,20,03,05,0.00
2009,08,20,03,06,0.00
2009,08,20,03,07,0.00
2009,08,20,03,08,0.00
2009,08,20,03,09,0.00
2009,08,20,03,10,0.00
2009,08,20,03,11,0.00
2009,08,20,03,12,0.00
2009,08,20,03,13,0.00
2009,08,20,03,14,0.00
2009,08,20,03,15,0.00
2009,08,20,03,16,0.00
2009,08,20,03,17,0.00
2009,08,20,03,18,0.00
2009,08,20,03,19,0.00
2009,08,20,03,20,0.00
2009,08,20,03,21,0.00
2009,08,20,03,22,0.00
2009,08,20,03,23,0.00
2009,08,20,03,24,0.00
2009,08,20,03,25,0.00
2009,08,20,03,26,0.00
2009,08,20,03,27,0.00
2009,08,20,03,28,0.00
2009,08,20,03,29,0.00
2009,08,20,03,30,0.00
2009,08,20,03,31,0.00
2009,08,20,03,32,0.00
2009,08,20,03,33,0.00
2009,08,20,03,34,0.00
2009,08,20,03,35,0.00
2009,08,20,03,36,0.00
2009,08,20,03,37,0.00
2009,08,20,03,38,0.00
2009,08,20,03,39,0.00
2009,08,20,03,40,0.00
2009,08,20,03,41,0.00
2009,08,20,03,42,0.00
2009,08,20,03,43,0.00
2009,08,20,03,44,0.00
2009,08,20,03,45,0.00
2009,08,20,03,46,0.00
2009,08,20,03,47,0.00
2009,08,20,03,48,0.00
2009,08,20,03,49,0.00
2009,08,20,03,50,0.00
2009,08,20,03,51,0.00
2009,08,20,03,52,0.00
2009,08,20,03,53,0.00
2009,08,20,03,54,0.00
2009,08,20,03,55,0.00
2009,08,20,03,56,0.00
2009,08,20,03,57,0.00
2009,08,20,03,58,0.00
2009,08,20,03,59,0.00
2009,08,20,04,00,0.00
2009,08,20,04,01,0.00
2009,08,20,04,02,0.00
2009,08,20,04,03,0.00
2009,08,20,04,04,0.00
2009,08,20,04,05,0.00
2009,08,20,04,06,0.00
2009,08,20,04,07,1.60
2009,08,20,04,08,1.60
2009,08,20,04,09,3.20
2009,08,20,04,10,0.00
2009,08,20,04,11,0.00
2009,08,20,04,12,0.00
2009,08,20,04,13,0.00
2009,08,20,04,14,3.20
2009,08,20,04,15,4.80
2009,08,20,04,16,4.80
2009,08,20,04,17,3.20
2009,08,20,04,18,3.20
2009,08,20,04,19,4.80
2009,08,20,04,20,4.80
2009,08,20,04,21,4.80
2009,08,20,04,22,3.20
2009,08,20,04,23,3.20
2009,08,20,04,24,0.00
2009,08,20,04,25,0.00
2009,08,20,04,26,0.00
2009,08,20,04,27,0.00
2009,08,20,04,28,0.00
2009,08,20,04,29,0.00
2009,08,20,04,30,0.00
2009,08,20,04,31,1.60
2009,08,20,04,32,4.80
2009,08,20,04,33,4.80
2009,08,20,04,34,0.00
2009,08,20,04,35,0.00
2009,08,20,04,36,0.00
2009,08,20,04,37,3.20
2009,08,20,04,38,1.60
2009,08,20,04,39,4.80
2009,08,20,04,40,4.80
2009,08,20,04,41,3.20
2009,08,20,04,42,4.80
2009,08,20,04,43,1.60
2009,08,20,04,44,3.20
2009,08,20,04,45,3.20
2009,08,20,04,46,0.00
2009,08,20,04,47,3.20
2009,08,20,04,48,6.40
2009,08,20,04,49,4.80
2009,08,20,04,50,3.20
2009,08,20,04,51,1.60
2009,08,20,04,52,0.00
2009,08,20,04,53,0.00
2009,08,20,04,54,0.00
2009,08,20,04,55,0.00
2009,08,20,04,56,0.00
2009,08,20,04,57,0.00
2009,08,20,04,58,3.20
2009,08,20,04,59,9.60
2009,08,20,05,00,9.60
2009,08,20,05,01,4.80
2009,08,20,05,02,3.20
2009,08,20,05,03,6.40
2009,08,20,05,04,4.80
2009,08,20,05,05,6.40
2009,08,20,05,06,4.80
2009,08,20,05,07,8.10
2009,08,20,05,08,6.40
2009,08,20,05,09,4.80
2009,08,20,05,10,0.00
2009,08,20,05,11,3.20
2009,08,20,05,12,6.40
2009,08,20,05,13,4.80
2009,08,20,05,14,3.20
2009,08,20,05,15,4.80
2009,08,20,05,16,4.80
2009,08,20,05,17,4.80
2009,08,20,05,18,4.80
2009,08,20,05,19,3.20
2009,08,20,05,20,3.20
2009,08,20,05,21,6.40
2009,08,20,05,22,6.40
2009,08,20,05,23,8.10
2009,08,20,05,24,11.30
2009,08,20,05,25,9.60
2009,08,20,05,26,6.40
2009,08,20,05,27,6.40
2009,08,20,05,28,6.40
2009,08,20,05,29,4.80
2009,08,20,05,30,3.20
2009,08,20,05,31,0.00
2009,08,20,05,32,0.00
2009,08,20,05,33,0.00
2009,08,20,05,34,0.00
2009,08,20,05,35,0.00
2009,08,20,05,36,0.00
2009,08,20,05,37,0.00
2009,08,20,05,38,0.00
2009,08,20,05,39,0.00
2009,08,20,05,40,0.00
2009,08,20,05,41,0.00
2009,08,20,05,42,0.00
2009,08,20,05,43,0.00
2009,08,20,05,44,0.00
2009,08,20,05,45,0.00
2009,08,20,05,46,0.00
2009,08,20,05,47,0.00
2009,08,20,05,48,0.00
2009,08,20,05,49,0.00
2009,08,20,05,50,0.00
2009,08,20,05,51,0.00
2009,08,20,05,52,0.00
2009,08,20,05,53,0.00
2009,08,20,05,54,0.00
2009,08,20,05,55,0.00
2009,08,20,05,56,0.00
2009,08,20,05,57,0.00
2009,08,20,05,58,0.00
2009,08,20,05,59,0.00
2009,08,20,06,00,0.00
2009,08,20,06,01,0.00
2009,08,20,06,02,0.00
2009,08,20,06,03,4.80
2009,08,20,06,04,3.20
2009,08,20,06,05,0.00
2009,08,20,06,06,0.00
2009,08,20,06,07,0.00
2009,08,20,06,08,1.60
2009,08,20,06,09,4.80
2009,08,20,06,10,3.20
2009,08,20,06,11,0.00
2009,08,20,06,12,0.00
2009,08,20,06,13,0.00
2009,08,20,06,14,0.00
2009,08,20,06,15,0.00
2009,08,20,06,16,0.00
2009,08,20,06,17,0.00
2009,08,20,06,18,0.00
2009,08,20,06,19,1.60
2009,08,20,06,20,0.00
2009,08,20,06,21,0.00
2009,08,20,06,22,3.20
2009,08,20,06,23,1.60
2009,08,20,06,24,0.00
2009,08,20,06,25,0.00
2009,08,20,06,26,0.00
2009,08,20,06,27,0.00
2009,08,20,06,28,0.00
2009,08,20,06,29,0.00
2009,08,20,06,30,4.80
2009,08,20,06,31,4.80
2009,08,20,06,32,3.20
2009,08,20,06,33,1.60
2009,08,20,06,34,0.00
2009,08,20,06,35,0.00
2009,08,20,06,36,0.00
2009,08,20,06,37,0.00
2009,08,20,06,38,0.00
2009,08,20,06,39,0.00
2009,08,20,06,40,0.00
2009,08,20,06,41,0.00
2009,08,20,06,42,0.00
2009,08,20,06,43,0.00
2009,08,20,06,44,0.00
2009,08,20,06,45,0.00
2009,08,20,06,46,0.00
2009,08,20,06,47,0.00
2009,08,20,06,48,1.60
2009,08,20,06,49,0.00
2009,08,20,06,50,0.00
2009,08,20,06,51,0.00
2009,08,20,06,52,1.60
2009,08,20,06,53,3.20
2009,08,20,06,54,0.00
2009,08,20,06,55,4.80
2009,08,20,06,56,1.60
2009,08,20,06,57,3.20
2009,08,20,06,58,3.20
2009,08,20,06,59,4.80
2009,08,20,07,00,4.80
2009,08,20,07,01,0.00
2009,08,20,07,02,0.00
2009,08,20,07,03,0.00
2009,08,20,07,04,0.00
2009,08,20,07,05,0.00
2009,08,20,07,06,0.00
2009,08,20,07,07,0.00
2009,08,20,07,08,0.00
2009,08,20,07,09,0.00
2009,08,20,07,10,0.00
2009,08,20,07,11,0.00
2009,08,20,07,12,0.00
2009,08,20,07,13,0.00
2009,08,20,07,14,0.00
2009,08,20,07,15,0.00
2009,08,20,07,16,0.00
2009,08,20,07,17,0.00
2009,08,20,07,18,0.00
2009,08,20,07,19,0.00
2009,08,20,07,20,0.00
2009,08,20,07,21,0.00
2009,08,20,07,22,0.00
2009,08,20,07,23,0.00
2009,08,20,07,24,3.20
2009,08,20,07,25,0.00
2009,08,20,07,26,0.00
2009,08,20,07,27,0.00
2009,08,20,07,28,0.00
2009,08,20,07,29,0.00
2009,08,20,07,30,0.00
2009,08,20,07,31,0.00
2009,08,20,07,32,0.00
2009,08,20,07,33,0.00
2009,08,20,07,34,0.00
2009,08,20,07,35,0.00
2009,08,20,07,36,0.00
2009,08,20,07,37,0.00
2009,08,20,07,38,0.00
2009,08,20,07,39,0.00
2009,08,20,07,40,0.00
2009,08,20,07,41,0.00
2009,08,20,07,42,0.00
2009,08,20,07,43,0.00
2009,08,20,07,44,0.00
2009,08,20,07,45,0.00
2009,08,20,07,46,0.00
2009,08,20,07,47,0.00
2009,08,20,07,48,0.00
2009,08,20,07,49,0.00
2009,08,20,07,50,0.00
2009,08,20,07,51,0.00
2009,08,20,07,52,0.00
2009,08,20,07,53,0.00
2009,08,20,07,54,0.00
2009,08,20,07,55,0.00
2009,08,20,07,56,0.00
2009,08,20,07,57,0.00
2009,08,20,07,58,0.00
2009,08,20,07,59,0.00
2009,08,20,08,00,0.00
2009,08,20,08,01,0.00
2009,08,20,08,02,0.00
2009,08,20,08,03,0.00
2009,08,20,08,04,0.00
2009,08,20,08,05,0.00
2009,08,20,08,06,0.00
2009,08,20,08,07,0.00
2009,08,20,08,08,0.00
2009,08,20,08,09,0.00
2009,08,20,08,10,0.00
2009,08,20,08,11,0.00
2009,08,20,08,12,0.00
2009,08,20,08,13,0.00
2009,08,20,08,14,0.00
2009,08,20,08,15,0.00
2009,08,20,08,16,0.00
2009,08,20,08,17,0.00
2009,08,20,08,18,1.60
2009,08,20,08,19,4.80
2009,08,20,08,20,3.20
2009,08,20,08,21,0.00
2009,08,20,08,22,0.00
2009,08,20,08,23,0.00
2009,08,20,08,24,0.00
2009,08,20,08,25,1.60
2009,08,20,08,26,0.00
2009,08,20,08,27,0.00
2009,08,20,08,28,0.00
2009,08,20,08,29,0.00
2009,08,20,08,30,0.00
2009,08,20,08,31,0.00
2009,08,20,08,32,1.60
2009,08,20,08,33,4.80
2009,08,20,08,34,9.60
2009,08,20,08,35,11.30
2009,08,20,08,36,11.30
2009,08,20,08,37,4.80
2009,08,20,08,38,3.20
2009,08,20,08,39,6.40
2009,08,20,08,40,4.80
2009,08,20,08,41,1.60
2009,08,20,08,42,0.00
2009,08,20,08,43,0.00
2009,08,20,08,44,1.60
2009,08,20,08,45,4.80
2009,08,20,08,46,6.40
2009,08,20,08,47,6.40
2009,08,20,08,48,6.40
2009,08,20,08,49,8.10
2009,08,20,08,50,9.60
2009,08,20,08,51,9.60
2009,08,20,08,52,11.30
2009,08,20,08,53,11.30
2009,08,20,08,54,11.30
2009,08,20,08,55,9.60
2009,08,20,08,56,8.10
2009,08,20,08,57,8.10
2009,08,20,08,58,9.60
2009,08,20,08,59,4.80
2009,08,20,09,00,9.60
2009,08,20,09,01,9.60
2009,08,20,09,02,8.10
2009,08,20,09,03,6.40
2009,08,20,09,04,11.30
2009,08,20,09,05,6.40
2009,08,20,09,06,8.10
2009,08,20,09,07,8.10
2009,08,20,09,08,16.10
2009,08,20,09,09,9.60
2009,08,20,09,10,12.90
2009,08,20,09,11,11.30
2009,08,20,09,12,16.10
2009,08,20,09,13,11.30
2009,08,20,09,14,14.50
2009,08,20,09,15,9.60
2009,08,20,09,16,11.30
2009,08,20,09,17,9.60
2009,08,20,09,18,9.60
2009,08,20,09,19,6.40
2009,08,20,09,20,8.10
2009,08,20,09,21,6.40
2009,08,20,09,22,11.30
2009,08,20,09,23,12.90
2009,08,20,09,24,17.70
2009,08,20,09,25,9.60
2009,08,20,09,26,12.90
2009,08,20,09,27,19.30
2009,08,20,09,28,20.90
2009,08,20,09,29,27.40
2009,08,20,09,30,20.90
2009,08,20,09,31,22.50
2009,08,20,09,32,22.50
2009,08,20,09,33,20.90
2009,08,20,09,34,22.50
2009,08,20,09,35,22.50
2009,08,20,09,36,17.70
2009,08,20,09,37,20.90
2009,08,20,09,38,19.30
2009,08,20,09,39,17.70
2009,08,20,09,40,20.90
2009,08,20,09,41,17.70
2009,08,20,09,42,16.10
2009,08,20,09,43,19.30
2009,08,20,09,44,19.30
2009,08,20,09,45,17.70
2009,08,20,09,46,14.50
2009,08,20,09,47,16.10
2009,08,20,09,48,25.70
2009,08,20,09,49,20.90
2009,08,20,09,50,16.10
2009,08,20,09,51,20.90
2009,08,20,09,52,17.70
2009,08,20,09,53,14.50
2009,08,20,09,54,19.30
2009,08,20,09,55,14.50
2009,08,20,09,56,16.10
2009,08,20,09,57,14.50
2009,08,20,09,58,19.30
2009,08,20,09,59,19.30
2009,08,20,10,00,19.30
2009,08,20,10,01,17.70
2009,08,20,10,02,19.30
2009,08,20,10,03,20.90
2009,08,20,10,04,27.40
2009,08,20,10,05,16.10
2009,08,20,10,06,17.70
2009,08,20,10,07,17.70
2009,08,20,10,08,11.30
2009,08,20,10,09,20.90
2009,08,20,10,10,20.90
2009,08,20,10,11,22.50
2009,08,20,10,12,24.20
2009,08,20,10,13,20.90
2009,08,20,10,14,22.50
2009,08,20,10,15,27.40
2009,08,20,10,16,19.30
2009,08,20,10,17,20.90
2009,08,20,10,18,20.90
2009,08,20,10,19,27.40
2009,08,20,10,20,22.50
2009,08,20,10,21,22.50
2009,08,20,10,22,22.50
2009,08,20,10,23,20.90
2009,08,20,10,24,22.50
2009,08,20,10,25,22.50
2009,08,20,10,26,20.90
2009,08,20,10,27,19.30
2009,08,20,10,28,19.30
2009,08,20,10,29,27.40
2009,08,20,10,30,20.90
2009,08,20,10,31,22.50
2009,08,20,10,32,20.90
2009,08,20,10,33,24.20
2009,08,20,10,34,19.30
2009,08,20,10,35,17.70
2009,08,20,10,36,24.20
2009,08,20,10,37,22.50
2009,08,20,10,38,17.70
2009,08,20,10,39,22.50
2009,08,20,10,40,17.70
2009,08,20,10,41,20.90
2009,08,20,10,42,24.20
2009,08,20,10,43,22.50
2009,08,20,10,44,19.30
2009,08,20,10,45,14.50
2009,08,20,10,46,16.10
2009,08,20,10,47,25.70
2009,08,20,10,48,27.40
2009,08,20,10,49,29.00
2009,08,20,10,50,22.50
2009,08,20,10,51,24.20
2009,08,20,10,52,22.50
2009,08,20,10,53,22.50
2009,08,20,10,54,27.40
2009,08,20,10,55,27.40
2009,08,20,10,56,25.70
2009,08,20,10,57,25.70
2009,08,20,10,58,22.50
2009,08,20,10,59,33.80
2009,08,20,11,00,30.60
2009,08,20,11,01,20.90
2009,08,20,11,02,17.70
2009,08,20,11,03,20.90
2009,08,20,11,04,17.70
2009,08,20,11,05,20.90
2009,08,20,11,06,22.50
2009,08,20,11,07,17.70
2009,08,20,11,08,17.70
2009,08,20,11,09,24.20
2009,08,20,11,10,17.70
2009,08,20,11,11,12.90
2009,08,20,11,12,8.10
2009,08,20,11,13,22.50
2009,08,20,11,14,19.30
2009,08,20,11,15,17.70
2009,08,20,11,16,20.90
2009,08,20,11,17,11.30
2009,08,20,11,18,16.10
2009,08,20,11,19,9.60
2009,08,20,11,20,11.30
2009,08,20,11,21,17.70
2009,08,20,11,22,25.70
2009,08,20,11,23,19.30
2009,08,20,11,24,16.10
2009,08,20,11,25,20.90
2009,08,20,11,26,14.50
2009,08,20,11,27,22.50
2009,08,20,11,28,22.50
2009,08,20,11,29,14.50
2009,08,20,11,30,22.50
2009,08,20,11,31,27.40
2009,08,20,11,32,25.70
2009,08,20,11,33,24.20
2009,08,20,11,34,27.40
2009,08,20,11,35,25.70
2009,08,20,11,36,20.90
2009,08,20,11,37,22.50
2009,08,20,11,38,27.40
2009,08,20,11,39,32.20
2009,08,20,11,40,33.80
2009,08,20,11,41,27.40
2009,08,20,11,42,25.70
2009,08,20,11,43,30.60
2009,08,20,11,44,29.00
2009,08,20,11,45,24.20
2009,08,20,11,46,22.50
2009,08,20,11,47,32.20
2009,08,20,11,48,25.70
2009,08,20,11,49,24.20
2009,08,20,11,50,32.20
2009,08,20,11,51,35.40
2009,08,20,11,52,25.70
2009,08,20,11,53,27.40
2009,08,20,11,54,29.00
2009,08,20,11,55,27.40
2009,08,20,11,56,25.70
2009,08,20,11,57,24.20
2009,08,20,11,58,17.70
2009,08,20,11,59,17.70
2009,08,20,12,00,32.20
2009,08,20,12,01,25.70
2009,08,20,12,02,33.80
2009,08,20,12,03,27.40
2009,08,20,12,04,16.10
2009,08,20,12,05,20.90
2009,08,20,12,06,17.70
2009,08,20,12,07,14.50
2009,08,20,12,08,11.30
2009,08,20,12,09,24.20
2009,08,20,12,10,30.60
2009,08,20,12,11,20.90
2009,08,20,12,12,17.70
2009,08,20,12,13,17.70
2009,08,20,12,14,16.10
2009,08,20,12,15,30.60
2009,08,20,12,16,22.50
2009,08,20,12,17,20.90
2009,08,20,12,18,22.50
2009,08,20,12,19,20.90
2009,08,20,12,20,29.00
2009,08,20,12,21,29.00
2009,08,20,12,22,32.20
2009,08,20,12,23,33.80
2009,08,20,12,24,30.60
2009,08,20,12,25,27.40
2009,08,20,12,26,30.60
2009,08,20,12,27,22.50
2009,08,20,12,28,32.20
2009,08,20,12,29,25.70
2009,08,20,12,30,19.30
2009,08,20,12,31,19.30
2009,08,20,12,32,20.90
2009,08,20,12,33,20.90
2009,08,20,12,34,19.30
2009,08,20,12,35,30.60
2009,08,20,12,36,22.50
2009,08,20,12,37,20.90
2009,08,20,12,38,27.40
2009,08,20,12,39,25.70
2009,08,20,12,40,14.50
2009,08,20,12,41,22.50
2009,08,20,12,42,25.70
2009,08,20,12,43,19.30
2009,08,20,12,44,14.50
2009,08,20,12,45,22.50
2009,08,20,12,46,25.70
2009,08,20,12,47,29.00
2009,08,20,12,48,24.20
2009,08,20,12,49,20.90
2009,08,20,12,50,24.20
2009,08,20,12,51,25.70
2009,08,20,12,52,22.50
2009,08,20,12,53,24.20
2009,08,20,12,54,20.90
2009,08,20,12,55,25.70
2009,08,20,12,56,33.80
2009,08,20,12,57,24.20
2009,08,20,12,58,30.60
2009,08,20,12,59,25.70
2009,08,20,13,00,22.50
2009,08,20,13,01,17.70
2009,08,20,13,02,17.70
2009,08,20,13,03,20.90
2009,08,20,13,04,20.90
2009,08,20,13,05,19.30
2009,08,20,13,06,27.40
2009,08,20,13,07,24.20
2009,08,20,13,08,27.40
2009,08,20,13,09,20.90
2009,08,20,13,10,17.70
2009,08,20,13,11,24.20
2009,08,20,13,12,25.70
2009,08,20,13,13,33.80
2009,08,20,13,14,24.20
2009,08,20,13,15,29.00
2009,08,20,13,16,30.60
2009,08,20,13,17,25.70
2009,08,20,13,18,29.00
2009,08,20,13,19,25.70
2009,08,20,13,20,16.10
2009,08,20,13,21,27.40
2009,08,20,13,22,29.00
2009,08,20,13,23,25.70
2009,08,20,13,24,20.90
2009,08,20,13,25,22.50
2009,08,20,13,26,24.20
2009,08,20,13,27,22.50
2009,08,20,13,28,24.20
2009,08,20,13,29,19.30
2009,08,20,13,30,24.20
2009,08,20,13,31,22.50
2009,08,20,13,32,25.70
2009,08,20,13,33,22.50
2009,08,20,13,34,16.10
2009,08,20,13,35,19.30
2009,08,20,13,36,25.70
2009,08,20,13,37,16.10
2009,08,20,13,38,30.60
2009,08,20,13,39,19.30
2009,08,20,13,40,25.70
2009,08,20,13,41,29.00
2009,08,20,13,42,20.90
2009,08,20,13,43,27.40
2009,08,20,13,44,27.40
2009,08,20,13,45,24.20
2009,08,20,13,46,16.10
2009,08,20,13,47,17.70
2009,08,20,13,48,25.70
2009,08,20,13,49,17.70
2009,08,20,13,50,20.90
2009,08,20,13,51,29.00
2009,08,20,13,52,24.20
2009,08,20,13,53,20.90
2009,08,20,13,54,19.30
2009,08,20,13,55,29.00
2009,08,20,13,56,35.40
2009,08,20,13,57,33.80
2009,08,20,13,58,29.00
2009,08,20,13,59,22.50
2009,08,20,14,00,30.60
2009,08,20,14,01,40.20
2009,08,20,14,02,30.60
2009,08,20,14,03,33.80
2009,08,20,14,04,27.40
2009,08,20,14,05,27.40
2009,08,20,14,06,24.20
2009,08,20,14,07,17.70
2009,08,20,14,08,22.50
2009,08,20,14,09,20.90
2009,08,20,14,10,25.70
2009,08,20,14,11,22.50
2009,08,20,14,12,29.00
2009,08,20,14,13,17.70
2009,08,20,14,14,35.40
2009,08,20,14,15,22.50
2009,08,20,14,16,40.20
2009,08,20,14,17,30.60
2009,08,20,14,18,32.20
2009,08,20,14,19,37.00
2009,08,20,14,20,24.20
2009,08,20,14,21,37.00
2009,08,20,14,22,25.70
2009,08,20,14,23,29.00
2009,08,20,14,24,41.80
2009,08,20,14,25,40.20
2009,08,20,14,26,35.40
2009,08,20,14,27,33.80
2009,08,20,14,28,32.20
2009,08,20,14,29,25.70
2009,08,20,14,30,40.20
2009,08,20,14,31,30.60
2009,08,20,14,32,33.80
2009,08,20,14,33,29.00
2009,08,20,14,34,30.60
2009,08,20,14,35,24.20
2009,08,20,14,36,35.40
2009,08,20,14,37,30.60
2009,08,20,14,38,41.80
2009,08,20,14,39,40.20
2009,08,20,14,40,27.40
2009,08,20,14,41,24.20
2009,08,20,14,42,38.60
2009,08,20,14,43,43.50
2009,08,20,14,44,35.40
2009,08,20,14,45,29.00
2009,08,20,14,46,27.40
2009,08,20,14,47,32.20
2009,08,20,14,48,30.60
2009,08,20,14,49,38.60
2009,08,20,14,50,29.00
2009,08,20,14,51,32.20
2009,08,20,14,52,30.60
2009,08,20,14,53,37.00
2009,08,20,14,54,29.00
2009,08,20,14,55,32.20
2009,08,20,14,56,41.80
2009,08,20,14,57,38.60
2009,08,20,14,58,40.20
2009,08,20,14,59,32.20
2009,08,20,15,00,41.80
2009,08,20,15,01,38.60
2009,08,20,15,02,33.80
2009,08,20,15,03,37.00
2009,08,20,15,04,37.00
2009,08,20,15,05,33.80
2009,08,20,15,06,45.10
2009,08,20,15,07,29.00
2009,08,20,15,08,29.00
2009,08,20,15,09,37.00
2009,08,20,15,10,35.40
2009,08,20,15,11,32.20
2009,08,20,15,12,33.80
2009,08,20,15,13,41.80
2009,08,20,15,14,24.20
2009,08,20,15,15,24.20
2009,08,20,15,16,27.40
2009,08,20,15,17,29.00
2009,08,20,15,18,32.20
2009,08,20,15,19,27.40
2009,08,20,15,20,25.70
2009,08,20,15,21,25.70
2009,08,20,15,22,25.70
2009,08,20,15,23,25.70
2009,08,20,15,24,24.20
2009,08,20,15,25,20.90
2009,08,20,15,26,30.60
2009,08,20,15,27,29.00
2009,08,20,15,28,20.90
2009,08,20,15,29,17.70
2009,08,20,15,30,32.20
2009,08,20,15,31,20.90
2009,08,20,15,32,20.90
2009,08,20,15,33,25.70
2009,08,20,15,34,25.70
2009,08,20,15,35,32.20
2009,08,20,15,36,33.80
2009,08,20,15,37,29.00
2009,08,20,15,38,48.30
2009,08,20,15,39,43.50
2009,08,20,15,40,45.10
2009,08,20,15,41,27.40
2009,08,20,15,42,30.60
2009,08,20,15,43,45.10
2009,08,20,15,44,35.40
2009,08,20,15,45,41.80
2009,08,20,15,46,20.90
2009,08,20,15,47,32.20
2009,08,20,15,48,38.60
2009,08,20,15,49,37.00
2009,08,20,15,50,25.70
2009,08,20,15,51,24.20
2009,08,20,15,52,22.50
2009,08,20,15,53,30.60
2009,08,20,15,54,27.40
2009,08,20,15,55,25.70
2009,08,20,15,56,33.80
2009,08,20,15,57,16.10
2009,08,20,15,58,19.30
2009,08,20,15,59,35.40
2009,08,20,16,00,37.00
2009,08,20,16,01,40.20
2009,08,20,16,02,37.00
2009,08,20,16,03,48.30
2009,08,20,16,04,37.00
2009,08,20,16,05,40.20
2009,08,20,16,06,33.80
2009,08,20,16,07,41.80
2009,08,20,16,08,32.20
2009,08,20,16,09,40.20
2009,08,20,16,10,29.00
2009,08,20,16,11,19.30
2009,08,20,16,12,29.00
2009,08,20,16,13,32.20
2009,08,20,16,14,35.40
2009,08,20,16,15,37.00
2009,08,20,16,16,40.20
2009,08,20,16,17,25.70
2009,08,20,16,18,25.70
2009,08,20,16,19,41.80
2009,08,20,16,20,40.20
2009,08,20,16,21,38.60
2009,08,20,16,22,41.80
2009,08,20,16,23,40.20
2009,08,20,16,24,32.20
2009,08,20,16,25,37.00
2009,08,20,16,26,29.00
2009,08,20,16,27,25.70
2009,08,20,16,28,40.20
2009,08,20,16,29,40.20
2009,08,20,16,30,48.30
2009,08,20,16,31,30.60
2009,08,20,16,32,38.60
2009,08,20,16,33,30.60
2009,08,20,16,34,27.40
2009,08,20,16,35,41.80
2009,08,20,16,36,20.90
2009,08,20,16,37,41.80
2009,08,20,16,38,32.20
2009,08,20,16,39,37.00
2009,08,20,16,40,35.40
2009,08,20,16,41,29.00
2009,08,20,16,42,32.20
2009,08,20,16,43,27.40
2009,08,20,16,44,38.60
2009,08,20,16,45,29.00
2009,08,20,16,46,48.30
2009,08,20,16,47,38.60
2009,08,20,16,48,35.40
2009,08,20,16,49,40.20
2009,08,20,16,50,46.70
2009,08,20,16,51,33.80
2009,08,20,16,52,38.60
2009,08,20,16,53,35.40
2009,08,20,16,54,27.40
2009,08,20,16,55,40.20
2009,08,20,16,56,33.80
2009,08,20,16,57,40.20
2009,08,20,16,58,29.00
2009,08,20,16,59,35.40
2009,08,20,17,00,30.60
2009,08,20,17,01,35.40
2009,08,20,17,02,48.30
2009,08,20,17,03,32.20
2009,08,20,17,04,32.20
2009,08,20,17,05,29.00
2009,08,20,17,06,41.80
2009,08,20,17,07,35.40
2009,08,20,17,08,38.60
2009,08,20,17,09,29.00
2009,08,20,17,10,20.90
2009,08,20,17,11,32.20
2009,08,20,17,12,24.20
2009,08,20,17,13,29.00
2009,08,20,17,14,27.40
2009,08,20,17,15,25.70
2009,08,20,17,16,33.80
2009,08,20,17,17,27.40
2009,08,20,17,18,24.20
2009,08,20,17,19,29.00
2009,08,20,17,20,29.00
2009,08,20,17,21,32.20
2009,08,20,17,22,24.20
2009,08,20,17,23,33.80
2009,08,20,17,24,19.30
2009,08,20,17,25,27.40
2009,08,20,17,26,37.00
2009,08,20,17,27,32.20
2009,08,20,17,28,17.70
2009,08,20,17,29,32.20
2009,08,20,17,30,22.50
2009,08,20,17,31,19.30
2009,08,20,17,32,32.20
2009,08,20,17,33,33.80
2009,08,20,17,34,33.80
2009,08,20,17,35,35.40
2009,08,20,17,36,25.70
2009,08,20,17,37,27.40
2009,08,20,17,38,25.70
2009,08,20,17,39,30.60
2009,08,20,17,40,27.40
2009,08,20,17,41,29.00
2009,08,20,17,42,29.00
2009,08,20,17,43,37.00